Theta_e
321 321 322 320 315 316 319 317 316 316 317 314 310 314 316 316 319 316 320 326 327 329 330 333 335 335 337 336 335 335 335 336 336 336 336 335 333 332 331 331 333 334 333 332 331 329 328 327 328
320 321 321 313 318 315 311 317 318 313 315 312 314 315 317 317 317 318 322 326 328 329 330 331 333 335 335 335 334 335 336 335 335 334 333 332 331 331 329 327 327 329 330 329 328 325 321 321 322
319 319 318 315 313 312 315 314 314 314 313 314 316 313 315 317 314 317 323 326 328 330 330 331 334 334 334 335 335 335 334 334 333 332 331 331 330 327 324 318 320 326 327 323 320 315 309 309 312
319 314 308 318 319 317 315 316 312 315 314 311 313 314 312 314 316 317 321 326 326 329 329 330 334 334 334 335 334 333 332 332 331 330 330 328 327 323 317 313 321 318 316 311 306 307 309 311 305
315 309 311 315 314 313 311 312 311 314 314 313 312 313 313 313 314 316 320 325 324 325 325 328 332 333 334 332 331 331 331 331 330 329 327 325 322 318 316 316 316 315 313 312 312 312 312 307 306
311 309 316 314 313 313 312 311 312 313 312 312 313 313 312 311 313 316 319 324 324 323 323 325 327 331 331 330 330 330 330 330 329 327 323 320 318 317 315 315 314 314 312 312 312 309 307 302 300
314 313 315 313 314 314 315 309 313 313 313 312 311 315 311 309 312 316 319 324 324 323 322 322 324 328 327 327 329 329 329 328 326 322 319 317 316 315 314 315 314 313 312 308 302 299 299 298 298
310 311 315 313 314 315 313 311 311 312 314 309 309 313 313 310 312 315 320 322 323 322 321 320 323 325 327 328 328 327 327 326 321 318 316 314 313 313 311 311 312 312 310 302 298 298 297 297 297
307 310 311 313 312 314 312 313 311 310 312 311 309 310 309 309 312 315 318 320 320 321 320 319 320 323 324 324 325 325 325 321 317 315 314 311 308 307 303 307 308 308 303 299 297 297 296 296 296
312 308 310 308 310 313 313 312 313 313 312 310 311 308 308 308 312 313 314 315 317 318 319 318 318 320 320 320 321 322 320 317 314 313 310 306 302 302 302 305 304 303 302 298 297 296 295 295 295
312 314 310 311 309 312 313 312 311 311 311 308 311 310 305 306 309 311 312 314 315 317 317 317 316 318 318 317 316 316 315 313 312 309 306 300 298 299 301 304 301 299 297 296 295 295 295 295 294
316 312 312 313 313 314 313 310 312 309 314 311 307 308 306 304 304 308 310 312 314 314 316 316 315 316 316 315 314 312 311 310 309 306 302 300 297 298 300 299 296 295 295 295 295 295 294 294 294
314 313 313 311 311 311 311 312 311 309 309 306 305 305 305 304 305 307 310 310 311 312 313 314 314 314 314 314 313 311 310 308 305 304 301 298 297 297 298 297 296 295 295 295 295 295 294 294 293
312 312 311 310 311 311 313 313 310 311 308 308 307 305 304 303 305 306 306 307 309 310 311 313 313 313 312 312 311 310 308 306 304 301 300 298 297 297 297 296 296 295 294 294 294 294 294 294 293
312 312 308 308 310 310 309 312 310 311 309 308 307 305 304 303 305 305 308 306 309 308 309 310 311 312 312 311 310 308 307 305 303 299 298 298 298 297 297 296 296 295 294 294 294 294 294 294 294
310 309 310 308 308 310 310 311 310 308 307 307 306 304 303 304 304 306 308 308 308 308 308 307 308 310 310 310 309 307 305 304 302 299 298 298 298 297 296 296 295 295 294 293 293 294 294 294 294
306 307 306 307 307 310 309 309 309 308 307 307 307 306 306 306 303 306 310 309 308 309 308 306 306 306 308 308 308 306 304 302 301 299 298 298 298 297 296 295 295 294 293 293 293 293 293 293 293
307 306 306 307 308 307 308 309 308 309 307 309 309 309 307 307 309 311 309 310 309 308 307 306 305 304 304 305 304 303 303 301 301 298 298 298 297 297 296 295 294 294 293 292 292 292 292 292 292
306 305 305 306 307 309 308 308 309 308 308 309 309 309 308 309 309 310 310 310 309 308 307 305 304 303 301 301 300 300 300 300 300 298 297 298 297 296 296 295 294 293 293 293 292 292 291 291 291
307 308 308 308 308 306 307 308 308 308 309 309 310 310 310 308 308 307 308 308 308 309 307 304 304 302 302 301 300 299 298 298 299 298 297 298 297 296 296 295 294 293 292 292 291 291 291 290 290
306 307 308 308 307 306 306 308 307 307 307 308 309 309 309 308 308 308 305 305 305 305 306 305 304 302 301 300 298 298 299 298 297 296 297 297 298 297 295 295 294 293 292 292 292 291 291 291 289
309 306 307 308 308 309 307 311 308 310 309 306 307 307 305 304 305 305 304 303 304 306 307 305 304 302 301 299 298 298 298 297 297 296 297 298 298 297 296 294 293 292 292 291 291 290 290 291 290
309 308 307 308 308 307 308 308 311 307 308 307 306 305 304 304 303 303 303 304 306 306 307 306 304 302 300 299 299 297 298 298 297 296 295 295 297 297 296 295 293 292 291 291 291 290 290 290 290
307 309 307 305 306 311 309 308 310 308 309 308 308 307 305 304 303 301 302 303 303 304 305 303 302 302 300 299 298 298 298 298 296 295 294 294 294 295 295 294 293 292 291 291 290 290 290 289 289
308 308 310 310 310 314 307 308 312 309 307 308 309 307 305 303 302 300 300 300 301 303 302 301 300 299 298 298 297 297 297 297 295 295 294 292 292 293 295 294 293 292 291 290 290 289 289 289 288
306 307 309 309 311 315 307 312 313 307 307 305 304 304 303 302 300 300 300 298 302 303 301 299 298 298 297 297 296 296 297 297 296 296 295 294 293 294 294 295 293 292 291 290 290 289 289 288 288
306 309 307 309 298 304 311 310 311 308 307 306 306 304 304 301 301 300 299 299 301 302 304 299 297 297 297 297 296 296 296 296 296 296 295 295 295 295 294 293 293 292 291 290 289 289 288 287 287
306 306 309 306 313 310 312 310 313 312 310 308 305 303 302 302 305 309 303 300 303 304 303 299 298 297 297 297 297 296 295 296 295 295 295 295 295 295 294 293 292 292 291 290 289 288 287 287 287
306 308 307 307 312 316 319 316 313 311 309 307 309 308 305 304 304 303 298 300 301 300 299 298 297 297 297 296 296 296 295 295 295 294 294 294 294 294 294 294 292 291 291 290 288 288 287 287 286
308 313 312 315 316 311 313 315 312 311 310 309 309 309 307 301 298 297 296 296 296 297 297 297 298 297 297 296 295 295 294 294 294 294 294 294 294 292 292 292 292 290 289 289 288 287 286 286 285
Wind_Speed
1 3 2 3 4 5 4 5 2 3 2 3 7 5 7 4 6 5 3 20 10 28 24 20 18 20 20 19 16 15 15 15 13 11 9 8 8 8 7 8 8 7 6 5 3 3 6 7 6
2 2 3 2 4 2 5 4 5 6 1 5 4 4 2 7 2 3 3 19 15 29 24 22 19 19 19 18 17 18 17 14 13 12 12 11 8 8 8 8 9 8 6 5 4 1 3 3 3
1 3 3 4 3 4 5 5 4 2 3 2 1 1 2 4 2 4 8 21 20 26 24 23 21 18 16 17 17 16 16 14 14 13 11 10 9 8 5 5 6 9 9 6 4 1 2 2 2
1 5 4 3 6 7 6 5 2 1 1 3 1 5 4 5 4 5 11 25 24 25 25 24 23 22 21 20 18 17 16 15 14 12 12 11 10 8 8 7 8 7 5 2 2 4 5 5 3
5 3 3 2 5 6 5 6 4 4 2 2 3 4 5 3 8 6 13 26 25 26 25 25 24 23 23 22 17 18 17 16 14 14 12 12 10 9 8 9 8 8 8 8 7 8 8 6 6
4 3 3 3 5 6 6 5 4 4 2 1 3 1 6 4 8 9 15 24 23 24 24 25 25 24 23 21 19 19 18 17 16 15 14 13 11 10 10 10 10 10 9 9 9 8 7 6 4
5 3 3 3 5 6 4 3 2 3 2 5 2 2 5 4 9 11 17 21 22 22 24 24 25 25 22 19 21 21 19 19 17 15 14 13 13 13 12 11 11 11 10 9 7 5 4 3 3
5 4 1 4 3 6 3 2 1 4 5 2 5 5 6 1 11 15 18 20 22 23 23 25 26 26 24 21 22 20 22 21 19 18 18 17 17 15 15 14 12 11 10 8 6 4 4 3 3
3 3 2 5 5 5 1 1 2 1 2 3 7 5 3 3 14 18 20 22 24 26 27 27 28 27 26 25 25 25 24 23 21 20 21 21 20 19 17 16 14 12 10 7 6 4 2 2 2
4 4 8 6 5 5 3 3 3 1 4 5 6 6 5 11 20 22 22 27 31 33 33 32 31 30 28 27 27 27 26 25 25 25 24 22 20 18 18 17 14 13 11 10 8 6 5 4 4
4 6 5 6 8 5 4 4 4 4 7 10 8 8 7 12 19 20 24 29 39 37 36 36 34 32 32 31 31 30 29 28 27 26 23 22 20 21 21 20 18 15 13 10 9 8 6 4 4
3 9 6 4 4 3 4 5 5 8 18 8 14 7 5 10 12 23 25 35 37 36 37 38 37 35 35 33 34 33 32 31 30 28 26 25 24 23 22 20 17 14 12 10 8 6 5 4 5
5 5 6 7 7 8 4 15 8 9 19 10 8 7 11 10 17 25 31 29 32 36 38 40 40 40 39 37 37 35 35 33 31 30 29 28 27 25 23 21 18 16 13 11 9 7 6 4 4
3 4 7 7 7 7 7 16 6 12 7 12 7 13 13 12 19 18 25 35 37 39 42 41 43 44 43 42 41 40 38 36 33 32 32 30 28 26 25 23 20 18 15 13 10 7 5 4 4
2 7 8 7 6 7 7 12 10 20 3 12 12 11 10 14 15 26 35 35 43 42 39 43 44 46 47 46 44 43 41 38 37 36 34 32 30 29 27 24 23 20 17 14 11 9 6 4 3
3 2 4 2 6 2 8 10 22 8 7 14 12 11 10 13 14 30 35 39 36 39 44 43 43 47 49 50 49 47 44 42 41 39 37 35 33 31 29 27 24 21 18 16 14 11 8 5 3
2 5 8 11 13 5 8 8 13 6 4 11 12 12 12 12 11 28 36 37 37 39 40 43 45 48 51 52 51 49 47 45 43 42 40 37 35 33 32 29 26 24 21 18 15 13 10 7 3
8 6 6 7 5 5 7 15 13 19 6 18 19 18 14 16 24 28 29 32 33 34 37 41 44 47 47 47 47 47 48 48 46 45 42 40 38 36 34 31 29 27 24 21 19 15 11 7 3
1 5 7 9 12 4 15 18 20 18 20 22 22 20 22 23 23 26 29 28 28 32 35 40 42 44 43 42 41 41 49 49 49 49 47 44 42 39 37 34 31 29 27 24 20 17 13 8 5
9 12 15 13 18 5 14 19 19 20 22 26 26 25 21 15 13 16 23 23 27 33 36 37 43 44 48 48 45 32 37 40 47 50 49 47 45 42 40 38 36 33 30 26 24 21 15 10 8
6 7 17 13 7 6 9 11 9 9 11 20 25 22 17 15 18 18 10 17 21 26 32 37 41 43 45 45 41 37 27 28 38 43 47 47 46 44 43 41 39 37 34 31 28 25 19 14 10
16 12 13 11 4 4 5 10 3 13 15 10 15 14 12 11 11 12 9 11 15 24 30 34 36 41 46 43 37 42 40 30 43 43 52 54 50 48 46 43 41 39 37 34 30 27 23 17 14
10 5 5 2 4 5 3 4 3 4 6 10 9 9 10 12 8 10 10 13 22 20 25 31 35 38 41 46 45 40 35 35 29 33 42 50 52 51 50 47 44 42 39 36 33 30 27 24 19
2 1 3 3 2 7 12 9 3 4 6 4 3 7 8 8 9 7 9 12 18 18 19 26 31 37 40 43 45 47 42 33 32 37 39 44 48 51 49 48 46 44 42 39 35 32 29 26 22
3 4 4 4 1 10 2 5 12 6 9 6 11 11 6 7 7 10 12 12 20 25 24 23 26 31 34 39 41 41 37 33 34 36 35 37 40 47 54 51 49 47 43 40 37 34 32 29 28
7 8 5 7 6 12 3 14 11 8 6 8 5 4 6 9 7 7 8 8 20 27 23 19 22 28 29 35 37 35 37 38 40 39 37 40 42 46 52 55 52 49 46 42 39 37 34 31 29
5 5 3 3 2 1 11 20 19 12 7 3 5 4 8 8 9 10 9 9 16 22 21 17 18 22 24 30 35 39 40 41 42 40 43 44 43 43 46 50 53 51 47 45 42 40 38 35 32
5 3 1 2 3 11 12 7 20 15 10 8 9 10 10 8 12 18 12 11 17 21 22 15 16 20 23 27 32 37 39 42 41 43 44 46 44 43 43 45 50 51 50 47 45 43 40 37 35
2 3 3 2 5 12 12 11 16 10 6 9 12 12 9 10 11 10 9 18 28 30 24 22 18 16 23 27 31 35 38 41 41 42 42 44 43 45 46 46 48 52 53 52 49 47 44 41 39
7 20 22 13 9 9 17 19 23 20 14 9 16 17 18 18 17 17 17 23 25 31 30 28 27 23 24 25 28 34 35 37 39 42 46 45 44 43 44 45 46 50 52 54 53 50 48 46 44
Wind_Direction
352 325 298 37 47 59 267 261 262 256 236 168 127 151 195 172 168 211 299 180 171 175 169 170 178 180 182 183 178 174 173 167 166 168 162 158 142 127 130 152 159 144 128 120 94 59 44 43 52
2 334 41 76 91 48 268 249 234 232 264 120 136 130 149 242 223 260 182 179 172 177 175 173 178 182 187 194 182 177 176 177 172 166 177 180 163 137 149 155 162 153 132 123 125 121 39 33 19
32 25 81 93 116 192 229 226 235 261 148 172 219 239 196 231 226 219 190 176 167 175 179 176 174 172 182 174 174 176 179 175 187 188 178 172 165 171 184 191 168 145 138 122 133 94 38 45 30
360 22 39 95 233 254 220 252 234 295 290 237 220 269 284 233 181 207 186 179 174 178 181 181 180 174 177 174 182 189 190 190 185 183 182 178 175 184 180 166 149 165 174 176 84 69 73 81 56
44 56 55 321 260 264 258 264 179 200 258 200 155 277 260 246 221 222 189 181 181 182 185 187 188 186 186 186 190 195 193 195 192 187 182 173 171 165 158 145 139 129 124 113 105 102 94 74 66
40 92 36 260 263 274 273 247 170 188 223 191 175 261 247 238 217 198 184 185 187 187 188 192 194 195 201 197 195 195 192 193 187 186 181 174 169 160 153 147 139 133 121 114 112 105 94 80 67
115 91 228 258 265 301 262 141 194 195 192 250 145 234 267 276 213 191 181 187 190 194 196 197 198 197 201 196 197 197 195 190 189 186 183 175 169 163 158 151 145 135 129 130 121 117 104 92 76
105 91 278 251 266 274 310 222 199 179 253 71 173 237 260 313 187 183 181 190 196 200 203 202 200 201 196 193 195 193 194 194 191 186 186 183 174 171 163 160 150 144 141 139 136 132 134 122 92
134 66 248 252 187 256 208 307 199 172 261 224 208 220 223 199 173 174 182 194 201 206 208 207 206 205 205 201 198 194 199 196 193 191 191 191 181 182 172 169 161 157 158 156 151 151 137 84 63
108 145 223 213 205 240 286 204 263 244 248 254 278 241 213 181 180 180 190 200 206 209 209 209 209 209 207 205 201 199 200 198 197 199 199 193 187 183 175 177 171 166 167 166 167 160 145 122 102
175 212 218 251 231 270 269 275 217 184 265 226 222 249 180 192 200 203 208 208 213 213 212 210 209 210 210 207 205 204 204 203 203 205 202 193 187 185 182 185 183 179 174 167 153 148 140 125 100
215 241 215 254 209 277 252 292 248 181 255 233 220 235 176 199 207 213 215 220 220 219 219 215 212 211 212 212 210 210 208 207 207 206 203 199 194 192 190 190 186 183 182 178 163 152 137 116 98
214 235 240 251 271 258 285 257 235 242 257 254 244 231 237 224 222 227 227 233 229 226 225 221 216 214 213 212 214 213 213 213 212 210 207 205 203 200 197 195 193 191 189 185 177 172 152 124 96
227 260 270 275 250 239 204 269 141 254 254 265 241 243 235 227 228 234 231 235 232 232 230 226 221 218 216 215 215 216 216 217 215 213 212 209 209 207 203 202 201 198 194 190 184 173 154 126 100
294 311 310 224 246 233 166 291 230 249 199 267 263 257 250 237 233 229 236 230 235 235 235 230 225 222 220 219 219 219 220 219 217 214 212 212 211 209 210 208 204 201 197 193 186 183 177 161 126
311 166 307 271 137 264 156 252 273 262 213 263 276 280 262 255 229 244 246 245 242 238 236 233 228 224 222 222 222 221 222 220 219 217 215 214 214 212 210 210 208 204 201 197 193 192 189 179 153
328 242 229 304 199 152 190 250 268 265 180 273 277 269 277 280 252 245 250 249 245 243 238 234 230 227 223 222 223 223 223 222 222 220 217 216 216 214 214 212 209 208 205 201 199 198 200 192 178
225 228 254 247 301 185 241 256 277 288 237 265 274 271 261 262 267 265 261 260 255 250 242 238 233 229 225 220 219 222 222 222 222 222 220 218 216 215 215 214 212 210 206 203 201 202 200 199 189
170 252 248 266 276 299 268 268 275 275 285 273 265 260 263 259 264 273 270 265 255 249 239 232 228 224 216 209 206 213 218 219 222 222 221 218 217 216 215 214 212 211 211 209 204 201 200 193 183
250 269 269 273 264 205 269 273 268 264 256 262 271 273 267 274 270 269 266 256 245 244 239 231 231 220 216 210 209 208 209 217 223 223 223 219 216 215 215 214 213 212 210 208 207 203 194 194 183
219 219 260 261 320 250 297 273 230 261 252 261 265 264 276 269 280 279 279 256 255 243 242 238 233 225 219 209 200 201 202 214 216 218 223 221 219 216 216 215 214 212 212 211 209 208 206 188 185
266 224 250 266 359 248 16 297 305 260 270 245 264 273 267 258 263 278 301 298 267 262 255 247 236 228 220 209 201 197 201 198 209 208 213 217 216 216 216 216 215 214 213 212 212 210 211 202 186
241 199 227 189 207 337 228 267 236 152 260 270 278 277 273 271 289 284 283 288 303 294 267 252 238 231 218 209 205 203 209 213 210 199 205 212 212 216 215 214 213 214 214 214 212 209 210 209 202
48 42 50 68 102 270 203 198 96 164 194 239 228 275 268 325 328 306 309 318 327 325 289 265 243 227 219 212 208 207 209 207 199 193 199 203 208 212 215 216 215 214 214 214 213 213 212 212 210
146 76 308 318 43 255 172 228 251 237 223 213 282 270 310 331 342 346 346 338 349 331 317 277 243 227 218 212 211 213 210 208 205 201 196 193 199 206 213 214 214 215 216 215 214 213 213 212 212
180 168 167 238 261 282 90 261 270 212 247 240 321 307 318 324 337 329 328 320 321 323 327 293 246 228 219 216 212 216 217 213 212 213 206 204 204 210 212 213 216 216 215 213 214 214 214 214 215
172 179 195 292 7 305 266 277 282 219 284 283 290 8 317 321 307 290 289 283 312 320 325 293 253 241 228 224 222 221 220 218 215 215 217 217 216 214 215 216 215 216 216 214 213 213 213 212 215
174 187 51 357 256 258 268 273 262 302 307 319 323 342 337 312 309 310 306 319 328 316 321 301 272 261 241 231 232 229 224 222 223 221 218 220 219 217 214 214 216 217 216 215 213 213 214 212 214
89 250 244 231 203 250 261 257 273 291 305 329 315 311 299 290 292 311 325 324 330 343 338 325 300 266 256 245 236 234 233 229 224 227 226 224 223 219 215 213 212 215 215 215 214 214 214 212 213
210 253 241 244 247 231 254 260 284 295 309 314 314 318 353 20 16 16 15 14 7 6 2 0 339 312 295 278 264 254 242 234 229 227 227 228 225 223 222 215 211 212 213 214 213 212 213 212 211